When you browse on this site, cookies collect data to enhance your experience and personalize the content and advertising you see.
Visit our Privacy Policy to learn more. By continuing to use the site, you agree to this use of cookies and data.
  • In Lithuania
  • List of Countries
  • For 7 days
  • Water Temperature
  • Weather Map
  • Weather Widgets
  • user-avatar
    Login

    Hourly Weather Oran

    Today, 23 February, Sunday

    Time Temperature Precipitation Wind Pressure Humidity
    00:00 +11°C° 0 mm 4 mps 763 mmHg 87%
    01:00 +11°C° 0 mm 3 mps 763 mmHg 87%
    02:00 +11°C° 0 mm 3 mps 762 mmHg 88%
    03:00 +10°C° 0 mm 2 mps 762 mmHg 88%
    04:00 +10°C° 0 mm 3 mps 762 mmHg 88%
    05:00 +10°C° 0 mm 3 mps 762 mmHg 87%
    06:00 +10°C° 0 mm 3 mps 762 mmHg 86%
    07:00 +12°C° 0 mm 3 mps 763 mmHg 80%
    08:00 +14°C° 0 mm 3 mps 763 mmHg 74%
    09:00 +17°C° 0 mm 3 mps 763 mmHg 68%
    10:00 +19°C° 0 mm 3 mps 763 mmHg 62%
    11:00 +20°C° 0 mm 3 mps 764 mmHg 55%
    12:00 +22°C° 0 mm 3 mps 764 mmHg 48%
    13:00 +22°C° 0 mm 3 mps 763 mmHg 45%
    14:00 +24°C° 0 mm 3 mps 762 mmHg 42%
    15:00 +25°C° 0 mm 3 mps 761 mmHg 40%
    16:00 +21°C° 0 mm 4 mps 761 mmHg 48%
    17:00 +19°C° 0 mm 4 mps 761 mmHg 56%
    18:00 +17°C° 0 mm 4 mps 761 mmHg 63%
    19:00 +15°C° 0 mm 4 mps 761 mmHg 66%
    20:00 +14°C° 0 mm 3 mps 761 mmHg 68%
    21:00 +15°C° 0 mm 2 mps 761 mmHg 71%
    22:00 +15°C° 0 mm 2 mps 761 mmHg 70%
    23:00 +14°C° 0 mm 2 mps 761 mmHg 69%

    Tomorrow, 24 February, Monday

    Time Temperature Precipitation Wind Pressure Humidity
    00:00 +14°C° 0 mm 2 mps 761 mmHg 68%
    01:00 +14°C° 0 mm 2 mps 761 mmHg 67%
    02:00 +14°C° 0 mm 2 mps 761 mmHg 66%
    03:00 +13°C° 0 mm 1 mps 760 mmHg 65%
    04:00 +13°C° 0 mm 1 mps 760 mmHg 63%
    05:00 +13°C° 0 mm 1 mps 760 mmHg 61%
    06:00 +12°C° 0 mm 1 mps 760 mmHg 59%
    07:00 +15°C° 0 mm 1 mps 760 mmHg 50%
    08:00 +19°C° 0 mm 1 mps 760 mmHg 41%
    09:00 +22°C° 0 mm 1 mps 760 mmHg 31%
    10:00 +23°C° 0 mm 1 mps 760 mmHg 30%
    11:00 +24°C° 0 mm 2 mps 759 mmHg 28%
    12:00 +25°C° 0 mm 2 mps 759 mmHg 27%
    13:00 +24°C° 0 mm 3 mps 759 mmHg 31%
    14:00 +24°C° 0 mm 3 mps 758 mmHg 36%
    15:00 +22°C° 0 mm 4 mps 757 mmHg 41%
    16:00 +20°C° 0 mm 3 mps 757 mmHg 49%
    17:00 +18°C° 0 mm 3 mps 757 mmHg 58%
    18:00 +16°C° 0 mm 3 mps 757 mmHg 67%
    19:00 +14°C° 0 mm 3 mps 757 mmHg 68%
    20:00 +13°C° 0 mm 3 mps 757 mmHg 70%
    21:00 +13°C° 0 mm 3 mps 757 mmHg 71%
    22:00 +13°C° 0 mm 3 mps 757 mmHg 73%
    23:00 +12°C° 0 mm 3 mps 757 mmHg 74%

    Day after tomorrow, 25 February, Tuesday

    Time Temperature Precipitation Wind Pressure Humidity
    00:00 +12°C° 0 mm 3 mps 757 mmHg 76%
    01:00 +12°C° 0 mm 4 mps 756 mmHg 77%
    02:00 +12°C° 0 mm 4 mps 756 mmHg 78%
    03:00 +12°C° 0 mm 4 mps 755 mmHg 79%
    04:00 +12°C° 0 mm 4 mps 755 mmHg 77%
    05:00 +12°C° 0 mm 4 mps 755 mmHg 75%
    06:00 +12°C° 0 mm 5 mps 755 mmHg 74%
    07:00 +14°C° 0 mm 5 mps 755 mmHg 66%
    08:00 +16°C° 0 mm 6 mps 756 mmHg 59%
    09:00 +18°C° 0 mm 7 mps 756 mmHg 51%
    10:00 +20°C° 0 mm 8 mps 756 mmHg 49%
    11:00 +19°C° 0 mm 9 mps 756 mmHg 46%
    12:00 +21°C° 0 mm 9 mps 756 mmHg 44%
    13:00 +21°C° 0 mm 9 mps 755 mmHg 44%
    14:00 +21°C° 0 mm 9 mps 755 mmHg 44%
    15:00 +19°C° 0 mm 9 mps 754 mmHg 44%
    16:00 +18°C° 0 mm 9 mps 754 mmHg 53%
    17:00 +16°C° 0 mm 8 mps 754 mmHg 61%
    18:00 +15°C° 0 mm 7 mps 754 mmHg 70%
    19:00 +15°C° 0 mm 7 mps 754 mmHg 71%
    20:00 +14°C° 0 mm 7 mps 755 mmHg 72%
    21:00 +14°C° 0 mm 7 mps 755 mmHg 73%
    22:00 +14°C° 0 mm 7 mps 755 mmHg 71%
    23:00 +14°C° 0 mm 7 mps 755 mmHg 69%

    26 February, Wednesday

    Time Temperature Precipitation Wind Pressure Humidity
    00:00 +14°C° 0 mm 7 mps 755 mmHg 67%
    01:00 +12°C° 0 mm 7 mps 755 mmHg 64%
    02:00 +12°C° 0 mm 7 mps 754 mmHg 62%
    03:00 +13°C° 0 mm 6 mps 754 mmHg 59%
    04:00 +12°C° 0 mm 7 mps 754 mmHg 62%
    05:00 +12°C° 0 mm 7 mps 754 mmHg 65%
    06:00 +12°C° 0 mm 7 mps 754 mmHg 68%
    07:00 +13°C° 0 mm 8 mps 754 mmHg 68%
    08:00 +15°C° 0 mm 8 mps 755 mmHg 68%
    09:00 +16°C° 0 mm 8 mps 755 mmHg 68%
    10:00 +17°C° 0 mm 8 mps 755 mmHg 65%
    11:00 +18°C° 0 mm 8 mps 755 mmHg 62%
    12:00 +20°C° 0 mm 8 mps 755 mmHg 59%
    13:00 +20°C° 0 mm 8 mps 755 mmHg 61%
    14:00 +20°C° 0 mm 7 mps 754 mmHg 62%
    15:00 +20°C° 0 mm 6 mps 754 mmHg 64%
    16:00 +17°C° 0 mm 5 mps 754 mmHg 71%
    17:00 +17°C° 0 mm 4 mps 754 mmHg 78%
    18:00 +14°C° 0 mm 3 mps 754 mmHg 85%
    19:00 +14°C° 0 mm 3 mps 755 mmHg 86%
    20:00 +13°C° 0 mm 3 mps 755 mmHg 88%
    21:00 +13°C° 0 mm 2 mps 756 mmHg 90%
    22:00 +13°C° 0 mm 2 mps 756 mmHg 90%
    23:00 +12°C° 0 mm 2 mps 756 mmHg 89%

    27 February, Thursday

    Time Temperature Precipitation Wind Pressure Humidity
    00:00 +12°C° 0 mm 1 mps 756 mmHg 89%
    01:00 +12°C° 0 mm 1 mps 756 mmHg 89%
    02:00 +11°C° 0 mm 1 mps 755 mmHg 88%
    03:00 +11°C° 0 mm 1 mps 755 mmHg 88%
    04:00 +11°C° 0 mm 1 mps 755 mmHg 87%
    05:00 +11°C° 0 mm 1 mps 756 mmHg 86%
    06:00 +11°C° 0 mm 1 mps 756 mmHg 85%
    07:00 +13°C° 0 mm 1 mps 756 mmHg 77%
    08:00 +15°C° 0 mm 1 mps 757 mmHg 69%
    09:00 +17°C° 0 mm 2 mps 757 mmHg 60%
    10:00 +19°C° 0 mm 2 mps 757 mmHg 53%
    11:00 +21°C° 0 mm 2 mps 757 mmHg 45%
    12:00 +22°C° 0 mm 3 mps 757 mmHg 38%
    13:00 +24°C° 0 mm 3 mps 756 mmHg 36%
    14:00 +23°C° 0 mm 4 mps 756 mmHg 35%
    15:00 +25°C° 0 mm 5 mps 755 mmHg 33%
    16:00 +21°C° 0 mm 5 mps 755 mmHg 42%
    17:00 +19°C° 0 mm 5 mps 755 mmHg 52%
    18:00 +16°C° 0 mm 5 mps 755 mmHg 61%
    19:00 +15°C° 0 mm 5 mps 755 mmHg 63%
    20:00 +15°C° 0 mm 4 mps 755 mmHg 65%
    21:00 +14°C° 0 mm 4 mps 755 mmHg 67%
    22:00 +14°C° 0 mm 4 mps 755 mmHg 65%
    23:00 +13°C° 0 mm 3 mps 755 mmHg 63%

    28 February, Friday

    Time Temperature Precipitation Wind Pressure Humidity
    00:00 +13°C° 0 mm 3 mps 755 mmHg 61%
    01:00 +13°C° 0 mm 3 mps 754 mmHg 59%
    02:00 +14°C° 0 mm 2 mps 754 mmHg 57%
    03:00 +13°C° 0 mm 2 mps 753 mmHg 55%
    04:00 +13°C° 0 mm 2 mps 753 mmHg 56%
    05:00 +13°C° 0 mm 1 mps 753 mmHg 56%
    06:00 +13°C° 0 mm 1 mps 753 mmHg 56%
    07:00 +15°C° 0 mm 2 mps 753 mmHg 55%
    08:00 +17°C° 0 mm 2 mps 753 mmHg 53%
    09:00 +18°C° 0 mm 2 mps 753 mmHg 51%
    10:00 +20°C° 0 mm 3 mps 753 mmHg 48%
    11:00 +21°C° 0 mm 3 mps 753 mmHg 45%
    12:00 +24°C° 0 mm 3 mps 753 mmHg 42%
    13:00 +23°C° 0 mm 4 mps 753 mmHg 44%
    14:00 +22°C° 0 mm 4 mps 752 mmHg 46%
    15:00 +22°C° 0 mm 5 mps 752 mmHg 48%
    16:00 +20°C° 0 mm 4 mps 752 mmHg 55%
    17:00 +19°C° 0 mm 4 mps 752 mmHg 63%
    18:00 +17°C° 0 mm 3 mps 752 mmHg 71%
    19:00 +15°C° 0 mm 4 mps 753 mmHg 72%
    20:00 +15°C° 0 mm 5 mps 753 mmHg 73%
    21:00 +15°C° 0 mm 6 mps 753 mmHg 74%
    22:00 +15°C° 0 mm 6 mps 753 mmHg 70%
    23:00 +15°C° 0 mm 7 mps 753 mmHg 66%
    Show more